Home > Time Zones > World Clock > Weather > India > Theni > Past weeks

Flag for India Weather past 2 weeks in Theni, Tamil Nadu, India

Now
81 °F

Haze.


Feels Like: 86 °F
Forecast: 77 / 97 °F
Wind: 9 mph from Southwest

Location: Coimbatore / Peelamedu

Current Time: May 26, 2015 at 1:31:34 AM

Latest Report: May 26, 2015 at 12:00 AM


Visibility: 2 mi

Pressure: 29.89 "Hg

Humidity: 84%

Dew point: 75 °F

Location of TheniLocation

Historic Weather in Theni — Graph

°F

Theni temperature yesterday

Maximum temperature yesterday: 95 °F (at 3:30 PM)
Minimum temperature yesterday: 77 °F (at 5:30 AM)
Average temperature yesterday: 86 °F

Past Weeks' High & Low Weather Summary

 TemperatureHumidityPressure
High95 °F (May 25, 3:30 PM)100% (May 15, 4:00 AM)29.92 "Hg (May 15, 4:00 AM)
Low72 °F (May 16, 4:30 AM)49% (May 21, 1:30 PM)29.71 "Hg (May 17, 2:30 PM)
Average82 °F78%29.84 "Hg
* Reported May 10 11:30 PM — Midnight between May 25 and May 26, Theni, Weather by CustomWeather, © 2015

Note: Actual official high and low records may vary slightly from our data, if they occured in-between our weather recording intervals... More about our weather records

Advertising

Theni weather history for previous 24 hours

 ConditionsComfort  
Time TempWeatherWind HumidityBarometerVisibility
12:00 AM
Tue, May 26
81 °FHaze.9 mph84%29.89 "Hg2 mi
11:30 PM
Mon, May 25
81 °FHaze.12 mph84%29.89 "Hg2 mi
11:00 PM81 °FHaze.14 mph84%29.89 "Hg2 mi
10:30 PM81 °FHaze.14 mph84%29.89 "Hg2 mi
10:00 PM81 °FHaze.15 mph79%29.89 "Hg3 mi
9:30 PM82 °FHaze.16 mph79%29.89 "Hg3 mi
9:00 PM84 °FHaze.14 mph74%29.86 "Hg3 mi
8:30 PM84 °FHaze.12 mph74%29.86 "Hg3 mi
7:30 PM84 °FPassing clouds.12 mph70%29.83 "Hg4 mi
7:00 PM86 °FPassing clouds.9 mph70%29.83 "Hg4 mi
6:30 PM86 °FPassing clouds.15 mph70%29.80 "Hg4 mi
6:00 PM88 °FPassing clouds.14 mph66%29.80 "Hg4 mi
5:30 PM90 °FPassing clouds.14 mph63%29.80 "Hg4 mi
5:00 PM91 °FPassing clouds.9 mph59%29.80 "Hg4 mi
4:30 PM93 °FPassing clouds.12 mph56%29.80 "Hg4 mi
4:00 PM93 °FPassing clouds.12 mph56%29.80 "Hg4 mi
3:30 PM95 °FPassing clouds.9 mph50%29.80 "Hg4 mi
2:30 PM93 °FPassing clouds.12 mph53%29.80 "Hg4 mi
2:00 PM93 °FPassing clouds.13 mph53%29.83 "Hg4 mi
1:30 PM93 °FPassing clouds.7 mph53%29.83 "Hg4 mi
1:00 PM93 °FPassing clouds.6 mph56%29.83 "Hg4 mi
12:30 PM91 °FPassing clouds.9 mph59%29.86 "Hg4 mi
12:00 PM90 °FPassing clouds.7 mph59%29.86 "Hg4 mi
11:30 AM90 °FPassing clouds.9 mph59%29.89 "Hg4 mi
10:30 AM88 °FScattered clouds.6 mph62%29.89 "Hg4 mi
10:00 AM88 °FPassing clouds.No wind66%29.89 "Hg4 mi
9:30 AM86 °FPassing clouds.N/A70%29.89 "Hg4 mi
9:00 AM84 °FPassing clouds.N/A74%29.89 "Hg4 mi
8:30 AM82 °FPassing clouds.3 mph74%29.89 "Hg4 mi
7:00 AM77 °FFog.9 mph89%29.86 "Hg2 mi
6:00 AM77 °FHaze.7 mph89%29.86 "Hg2 mi
5:30 AM77 °FHaze.7 mph89%29.86 "Hg2 mi
4:30 AM79 °FHaze.7 mph84%29.83 "Hg3 mi
3:30 AM79 °FHaze.7 mph89%29.83 "Hg3 mi
2:30 AM79 °FPassing clouds.9 mph89%29.83 "Hg4 mi
2:00 AM79 °FPassing clouds.12 mph79%29.86 "Hg4 mi
Weather by CustomWeather, © 2015

See weather overviewHow to use our weather pages